South International Falls, MN

2:17 PM CST on February 19, 2017 (GMT -0600)
Falls International

Weather History for KINL - May, 2013

Change the Weather History Date:

Monday, May 6, 2013

  Actual Average Record
Temperature  
Mean Temperature 49 °F 48 °F  
Max Temperature 70 °F 62 °F 86 °F (1918)
Min Temperature 28 °F 35 °F 23 °F (1976)
Degree Days  
Heating Degree Days 16 17  
Month to date heating degree days 166 106  
Since 1 July heating degree days 10242 9744  
Cooling Degree Days 0 0  
Month to date cooling degree days 0 0  
Year to date cooling degree days 0 1  
Moisture  
Dew Point 38 °F    
Average Humidity 71    
Maximum Humidity 100    
Minimum Humidity 42    
Precipitation  
Precipitation 0.00 in 0.08 in 0.74 in (1941)
Month to date precipitation 0.52 0.46  
Year to date precipitation 7.20 4.13  
Snow  
Snow 0.00 in 0.00 in 0.10 in (1954)
Month to date snowfall 0.0 0.1  
Since 1 July snowfall 98.6 70.9  
Snow Depth 0.00 in    
Sea Level Pressure  
Sea Level Pressure 30.11 in    
Wind  
Wind Speed 3 mph (WSW)    
Max Wind Speed 9 mph    
Max Gust Speed -    
Visibility 8 miles    
Events Fog    
T = Trace of Precipitation, MM = Missing Value Source: NWS Daily Summary

Daily Weather History Graph

Daily Weather History Graph

Search for Another Location

Airport or City:

Trip Planner

Search our weather history database for the weather conditions in past years. The results will help you decide how hot, cold, wet, or windy it might be!

Date:

Astronomy

May. 06, 2013 Rise Set
Actual Time 5:45 AM CDT 8:35 PM CDT
Civil Twilight 5:09 AM CDT 9:12 PM CDT
Nautical Twilight 4:23 AM CDT 9:58 PM CDT
Astronomical Twilight 3:27 AM CDT 10:54 PM CDT
Moon 4:03 AM CDT (5/6) 5:23 PM CDT (5/6)
Length of Visible Light 16h 02m
Length of Day
14h 50m
Waning Crescent, 11% of the Moon is Illuminated
May 6
Waning Crescent
May 9
New
May 17
First Quarter
May 24
Full
May 31
Last Quarter

Hourly Weather History & Observations

Time (CDT) Temp. Windchill Dew Point Humidity Pressure Visibility Wind Dir Wind Speed Gust Speed Precip Events Conditions
12:55 AM 32.0 °F - 30.9 °F 96% 30.17 in 10.0 mi Calm Calm - N/A   Clear
1:55 AM 32.0 °F - 30.9 °F 96% 30.17 in 10.0 mi Calm Calm - N/A   Clear
2:55 AM 30.0 °F - 28.9 °F 96% 30.16 in 10.0 mi Calm Calm - N/A   Clear
3:55 AM 30.0 °F - 28.9 °F 96% 30.15 in 10.0 mi Calm Calm - N/A   Scattered Clouds
4:55 AM 30.0 °F - 28.9 °F 96% 30.16 in 2.0 mi Calm Calm - N/A   Clear
5:08 AM 28.4 °F - 28.4 °F 100% 30.12 in 1.0 mi Calm Calm - N/A   Mist
5:15 AM 28.4 °F - 28.4 °F 100% 30.12 in 0.5 mi Calm Calm - N/A Fog Light Freezing Fog
5:43 AM 30.2 °F - 28.4 °F 93% 30.11 in 0.2 mi Calm Calm - N/A Fog Light Freezing Fog
5:55 AM 30.9 °F - 30.0 °F 96% 30.15 in 0.2 mi Calm Calm - N/A Fog Light Freezing Fog
6:05 AM 30.2 °F - 30.2 °F 100% 30.11 in 0.5 mi Calm Calm - N/A Fog Light Freezing Fog
6:13 AM 30.2 °F - 30.2 °F 100% 30.11 in 1.2 mi Calm Calm - N/A   Scattered Clouds
6:18 AM 30.2 °F - 30.2 °F 100% 30.11 in 3.0 mi Calm Calm - N/A   Partly Cloudy
6:55 AM 32.0 °F - 32.0 °F 100% 30.16 in 4.0 mi Calm Calm - N/A   Scattered Clouds
7:55 AM 39.9 °F 37.8 °F 39.0 °F 97% 30.16 in 10.0 mi SSW 3.5 mph - N/A   Clear
8:55 AM 46.9 °F - 41.0 °F 80% 30.16 in 10.0 mi West 3.5 mph - N/A   Clear
9:55 AM 51.1 °F - 42.1 °F 71% 30.16 in 10.0 mi West 4.6 mph - N/A   Clear
10:55 AM 57.0 °F - 42.1 °F 57% 30.14 in 10.0 mi WNW 5.8 mph - N/A   Clear
11:55 AM 60.1 °F - 41.0 °F 49% 30.13 in 10.0 mi Calm Calm - N/A   Clear
12:55 PM 63.0 °F - 42.1 °F 46% 30.12 in 10.0 mi WNW 9.2 mph - N/A   Clear
1:55 PM 64.9 °F - 44.1 °F 47% 30.10 in 10.0 mi NW 8.1 mph - N/A   Clear
2:55 PM 66.9 °F - 46.0 °F 47% 30.08 in 10.0 mi SSW 5.8 mph - N/A   Scattered Clouds
3:55 PM 66.9 °F - 46.0 °F 47% 30.06 in 10.0 mi Variable 5.8 mph - N/A   Partly Cloudy
4:55 PM 68.0 °F - 46.0 °F 45% 30.05 in 10.0 mi SW 5.8 mph - N/A   Partly Cloudy
5:55 PM 68.0 °F - 46.0 °F 45% 30.04 in 10.0 mi SW 6.9 mph - N/A   Clear
6:55 PM 68.0 °F - 45.0 °F 43% 30.04 in 10.0 mi West 5.8 mph - N/A   Clear
7:55 PM 66.9 °F - 46.0 °F 47% 30.03 in 10.0 mi West 4.6 mph - N/A   Clear
8:55 PM 53.1 °F - 46.0 °F 77% 30.04 in 10.0 mi Calm Calm - N/A   Clear
9:55 PM 51.1 °F - 45.0 °F 80% 30.05 in 10.0 mi Calm Calm - N/A   Clear
10:55 PM 46.0 °F - 43.0 °F 89% 30.05 in 10.0 mi Calm Calm - N/A   Clear
11:55 PM 43.0 °F - 41.0 °F 93% 30.05 in 10.0 mi Calm Calm - N/A   Clear